{"data":{"norad_id":61546,"epoch":"2026-09-21T01:33:08.744256Z","epoch_age_seconds":143291,"freshness":"FRESH","line1":"1 61546U 24184Q   26264.06468454  .00019438  00000+0  53087-3 0  9998","line2":"2 61546  53.1565 181.9154 0002721  70.5259 289.6038 15.37442224108489","mean_motion":15.37442224,"eccentricity":0.0002721,"inclination_deg":53.1565,"raan_deg":181.9154,"arg_perigee_deg":70.5259,"mean_anomaly_deg":289.6038,"bstar":0.00053087,"rev_number":10848,"period_min":93.662056207453,"perigee_km":451.8170864633,"apogee_km":455.5349591103,"semimajor_km":6831.8130227868,"source":"CELESTRAK","updated_at":"2026-09-22T09:00:49.367227Z"}}